Regional Weather Roundup
Issued by NWS

Home | Current Version | Previous Version | Text Only | Print | Product List | Glossary On
Versions: 1 2 3 4 5 6 7 8 9 10 11 12 13 14 15 16 17 18 19 20 21 22 23 24 25 26 27
000
ASUS45 KBOU 221206
RWRCO

WEATHER ROUNDUP FOR COLORADO
NATIONAL WEATHER SERVICE DENVER/BOULDER CO
600 AM MDT TUE APR 22 2014

NOTE: "FAIR" INDICATES FEW OR NO CLOUDS BELOW 12000 FEET WITH NO
SIGNIFICANT WEATHER AND/OR OBSTRUCTIONS TO VISIBILITY.

COZ001>005-013-030-031-221300-
...NORTHWEST COLORADO...

CITY           SKY/WX    TMP DP  RH WIND       PRES   REMARKS
CRAIG          CLOUDY    40  32  73 CALM      30.02F
HAYDEN         CLOUDY    41  27  56 E14       30.06F
MEEKER         PTCLDY    40  32  73 NE3       30.03F
MOUNT WERNER   CLOUDY    43  18  36 S16G24    30.23F
STEAMBOAT SPGS CLOUDY    36  27  71 CALM      30.08S
WALDEN         CLOUDY    34  25  69 SE3       30.13F
$$

COZ006>008-011-221300-
...WEST CENTRAL VALLEYS...

CITY           SKY/WX    TMP DP  RH WIND       PRES   REMARKS
GRAND JUNCTION PTCLDY    53  29  39 E18       29.96F
MONTROSE       CLEAR     45  30  55 SW3       30.07F
EAGLE          PTCLDY    34  27  75 E5        30.16F WCI  30
RIFLE          CLOUDY    42  30  62 CALM      30.04F
DELTA          NOT AVBL
NUCLA          NOT AVBL
$$

COZ017>023-064>068-221300-
...SOUTHWEST COLORADO...

CITY           SKY/WX    TMP DP  RH WIND       PRES   REMARKS
DURANGO        MOCLDY    38  25  59 CALM      30.17S
CORTEZ         MOCLDY    40  29  64 NW5       30.10S
PAGOSA SPRINGS MOCLDY    39  26  59 CALM      30.23F
TELLURIDE      PTCLDY    43  27  52 E7        30.23F
WOLF CREEK PAS CLOUDY    32  21  64 SW14G21   30.39S WCI  22
$$

COZ009-010-012-014-032>034-037-058>063-221300-
...CENTRAL COLORADO...

CITY           SKY/WX    TMP DP  RH WIND       PRES   REMARKS
ASPEN          CLEAR     40  27  59 SW6       30.14F
BUENA VISTA    CLEAR     31  27  83 CALM      30.23F
COPPER MTN     PTCLDY    37  21  52 S20G28    30.35F
BERTHOUD PASS  FAIR      30  21  69 W25       30.35S WCI  16
COTTONWOOD PAS CLEAR     39  32  75 CALM      30.28F
GUNNISON       CLEAR     28  23  80 CALM      30.26F
KREMMLING      PTCLDY    30  27  86 CALM      30.18F
LEADVILLE      CLEAR     25  22  88 NE7       30.26F WCI  17
MONARCH PASS   CLEAR     32  23  69 SW20      30.46F WCI  20
SALIDA         CLEAR     37  31  78 CALM      30.29F
SUNLIGHT       PTCLDY    39  28  65 CALM      30.28S
WILKERSON PASS CLEAR     32  28  86 SW14G21   30.33S WCI  22
$$

COZ069>075-221300-
...SAN LUIS VALLEY/SANGRE DE CRISTO MOUNTAINS...

CITY           SKY/WX    TMP DP  RH WIND       PRES   REMARKS
ALAMOSA        PTCLDY    35  30  82 N3        30.22S
LA VETA PASS   MOCLDY    34  32  93 SW9G20    30.29F WCI  26
SAGUACHE       MOCLDY    37  23  56 N9        30.24S
$$

COZ035-036-038>040-221300-
...NORTHERN COLORADO FRONT RANGE...

CITY           SKY/WX    TMP DP  RH WIND       PRES   REMARKS
DENVER INTL AP PTCLDY    49  34  56 SW6       30.03F
DMNS CITY PARK   N/A     51  35  53 S2        30.03S
AURORA         PTCLDY    52  37  58 S17       30.03F
FRONT RANGE AP NOT AVBL
ERIE MUNI ARPT MOCLDY    40  37  91 CALM      30.02F
BOULDER MUN AP MOCLDY    45  36  70 CALM      30.02F
CENTENNIAL     MOCLDY    47  34  60 S10       30.06S
BROOMFIELD     MOCLDY    46  34  61 W5        30.04F
FORT COLLINS   MOCLDY    39  32  75 N5        30.03F
LONGMONT       NOT AVBL
$$

COZ041-046-047-076>085-087-088-221300-
...PIKES PEAK/PALMER DIVIDE AND SOUTHERN FOOTHILLS...

CITY           SKY/WX    TMP DP  RH WIND       PRES   REMARKS
COLO. SPRINGS  PTCLDY    40  36  86 NE6       30.13F
A. F. ACADEMY  CLEAR     34  31  86 N7        30.14F WCI  28
ELLICOTT       NOT AVBL
FALCON         CLEAR     35  34  93 CALM      30.16S
FORT CARSON    CLEAR     40  33  74 N7        30.11F
LIMON          CLEAR     38  32  79 SE6       30.12F
MONUMENT HILL  PTCLDY    39  37  93 S12       30.12F
TRINIDAD       PTCLDY    53  40  61 SW21      30.13F
$$

COZ042>045-048>051-090-091-221300-
...NORTHEAST COLORADO...

CITY           SKY/WX    TMP DP  RH WIND       PRES   REMARKS
GREELEY ARPT   MOCLDY    37  28  70 W6        30.02F
AKRON          PTCLDY    43  32  65 S14       30.06F
BURLINGTON     CLEAR     44  30  57 S15       30.12F
WRAY           CLEAR     48  32  53 S9        30.10F
STERLING       NOT AVBL
HOLYOKE        NOT AVBL
FORT MORGAN    NOT AVBL
$$

COZ086-089-092>099-221300-
...SOUTHEAST COLORADO...

CITY           SKY/WX    TMP DP  RH WIND       PRES   REMARKS
PUEBLO         CLEAR     44  35  70 SW3       30.09F
LA JUNTA       CLEAR     48  41  76 E8        30.08F
LAMAR          CLEAR     52  33  48 SE10      30.11F
SPRINGFIELD      N/A     46  41  82 S12       30.16F
$$



USA.gov is the U.S. government's official web portal to all federal, state and local government web resources and services.